Novato, CA

10:04 PM PDT on April 27, 2017 (GMT -0700)
Gnoss

Weather History for KDVO - April, 2013

Change the Weather History Date:

Thursday, April 11, 2013

  Actual Average (KAPC) Record (KAPC)
Temperature  
Mean Temperature 60 °F -  
Max Temperature 73 °F 70 °F 84 °F (2008)
Min Temperature 46 °F 43 °F 33 °F (2009)
Degree Days  
Heating Degree Days 6    
Growing Degree Days 10 (Base 50)    
Moisture  
Dew Point 46 °F    
Average Humidity 63    
Maximum Humidity 100    
Minimum Humidity 38    
Precipitation  
Precipitation 0.00 in - - ()
Sea Level Pressure  
Sea Level Pressure 29.96 in    
Wind  
Wind Speed 10 mph (WNW)    
Max Wind Speed 22 mph    
Max Gust Speed 30 mph    
Visibility 10 miles    
Events      
Averages and records for this station are not official NWS values.
T = Trace of Precipitation, MM = Missing Value Source: NWS Daily Summary

Daily Weather History Graph

Daily Weather History Graph

Search for Another Location

Airport or City:

Trip Planner

Search our weather history database for the weather conditions in past years. The results will help you decide how hot, cold, wet, or windy it might be!

Date:

Astronomy

Apr. 11, 2013 Rise Set
Actual Time 6:39 AM PDT 7:43 PM PDT
Civil Twilight 6:12 AM PDT 8:10 PM PDT
Nautical Twilight 5:40 AM PDT 8:42 PM PDT
Astronomical Twilight 5:07 AM PDT 9:15 PM PDT
Moon 7:16 AM PDT (4/11) 9:20 PM PDT (4/11)
Length of Visible Light 13h 57m
Length of Day
13h 03m
New Moon, 2% of the Moon is Illuminated
Apr 11
New Moon
Apr 18
First Quarter
Apr 25
Full
May 2
Last Quarter
May 9
New

Hourly Weather History & Observations

Time (PDT) Temp. Dew Point Humidity Pressure Visibility Wind Dir Wind Speed Gust Speed Precip Events Conditions
12:15 AM 64.4 °F 46.4 °F 52% 30.05 in 10.0 mi WNW 11.5 mph 18.4 mph N/A   Clear
12:35 AM 64.4 °F 46.4 °F 52% 30.05 in 10.0 mi WNW 17.3 mph 24.2 mph N/A   Clear
12:55 AM 62.6 °F 46.4 °F 55% 30.05 in 10.0 mi WNW 16.1 mph 24.2 mph N/A   Clear
1:15 AM 62.6 °F 46.4 °F 55% 30.05 in 10.0 mi WNW 16.1 mph 19.6 mph N/A   Clear
1:35 AM 62.6 °F 46.4 °F 55% 30.04 in 10.0 mi WNW 21.9 mph 29.9 mph N/A   Clear
1:55 AM 60.8 °F 46.4 °F 59% 30.04 in 10.0 mi WNW 17.3 mph 28.8 mph N/A   Clear
2:15 AM 60.8 °F 44.6 °F 55% 30.03 in 10.0 mi WNW 15.0 mph 27.6 mph N/A   Clear
2:35 AM 59.0 °F 42.8 °F 55% 30.03 in 10.0 mi West 12.7 mph 23.0 mph N/A   Clear
2:55 AM 59.0 °F 42.8 °F 55% 30.03 in 10.0 mi West 16.1 mph 23.0 mph N/A   Clear
3:15 AM 57.2 °F 44.6 °F 63% 30.02 in 10.0 mi WNW 15.0 mph 26.5 mph N/A   Clear
3:35 AM 55.4 °F 44.6 °F 67% 30.03 in 10.0 mi West 4.6 mph 17.3 mph N/A   Clear
3:55 AM 55.4 °F 44.6 °F 67% 30.03 in 10.0 mi NW 6.9 mph - N/A   Clear
4:15 AM 55.4 °F 44.6 °F 67% 30.03 in 10.0 mi WNW 8.1 mph - N/A   Clear
4:35 AM 53.6 °F 44.6 °F 72% 30.04 in 10.0 mi North 6.9 mph - N/A   Clear
4:55 AM 53.6 °F 44.6 °F 72% 30.03 in 10.0 mi NW 6.9 mph - N/A   Clear
5:15 AM 55.4 °F 44.6 °F 67% 30.03 in 10.0 mi NW 12.7 mph 17.3 mph N/A   Clear
5:35 AM 55.4 °F 44.6 °F 67% 30.03 in 10.0 mi NW 9.2 mph - N/A   Clear
5:55 AM 51.8 °F 44.6 °F 76% 30.02 in 10.0 mi NW 9.2 mph - N/A   Clear
6:35 AM 50.0 °F 44.6 °F 82% 30.03 in 10.0 mi ESE 3.5 mph - N/A   Clear
6:55 AM 50.0 °F 44.6 °F 82% 30.03 in 10.0 mi Calm Calm - N/A   Clear
7:15 AM 51.8 °F 46.4 °F 82% 30.04 in 10.0 mi WNW 8.1 mph - N/A   Clear
7:35 AM 53.6 °F 44.6 °F 72% 30.04 in 10.0 mi NW 5.8 mph - N/A   Clear
7:55 AM 53.6 °F 46.4 °F 77% 30.05 in 10.0 mi NW 8.1 mph - N/A   Clear
8:15 AM 55.4 °F 44.6 °F 67% 30.05 in 10.0 mi NW 12.7 mph 20.7 mph N/A   Clear
8:35 AM 55.4 °F 46.4 °F 72% 30.04 in 10.0 mi North 9.2 mph - N/A   Clear
8:55 AM 57.2 °F 46.4 °F 67% 30.05 in 10.0 mi NNW 9.2 mph - N/A   Clear
9:15 AM 59.0 °F 46.4 °F 63% 30.04 in 10.0 mi NNW 12.7 mph 20.7 mph N/A   Clear
9:35 AM 59.0 °F 46.4 °F 63% 30.03 in 10.0 mi NNW 16.1 mph 21.9 mph N/A   Clear
10:15 AM 62.6 °F 48.2 °F 59% 30.02 in 10.0 mi NNW 11.5 mph 19.6 mph N/A   Clear
10:35 AM 62.6 °F 48.2 °F 59% 30.02 in 10.0 mi North 9.2 mph - N/A   Clear
10:55 AM 64.4 °F 48.2 °F 56% 30.03 in 10.0 mi North 9.2 mph 16.1 mph N/A   Clear
11:15 AM 66.2 °F 46.4 °F 49% 30.03 in 10.0 mi North 3.5 mph - N/A   Clear
11:35 AM 66.2 °F 51.8 °F 60% 30.02 in 10.0 mi NW 8.1 mph - N/A   Clear
11:55 AM 66.2 °F 48.2 °F 52% 30.02 in 10.0 mi North 3.5 mph - N/A   Clear
12:15 PM 66.2 °F 46.4 °F 49% 30.00 in 10.0 mi North 4.6 mph - N/A   Clear
12:35 PM 66.2 °F 44.6 °F 46% 29.98 in 10.0 mi Calm Calm - N/A   Clear
12:55 PM 66.2 °F 50.0 °F 56% 29.96 in - WSW 11.5 mph 19.6 mph N/A   Clear
1:15 PM 66.2 °F 50.0 °F 56% 29.96 in 10.0 mi SW 13.8 mph 23.0 mph N/A   Clear
1:35 PM 64.4 °F 48.2 °F 56% 29.97 in 10.0 mi WSW 17.3 mph 25.3 mph N/A   Clear
1:55 PM 66.2 °F 46.4 °F 49% 29.96 in 10.0 mi WSW 13.8 mph - N/A   Clear
2:15 PM 68.0 °F 44.6 °F 43% 29.95 in 10.0 mi SSW 5.8 mph - N/A   Clear
2:35 PM 68.0 °F 44.6 °F 43% 29.94 in 10.0 mi NNW 4.6 mph - N/A   Clear
2:55 PM 71.6 °F 44.6 °F 38% 29.93 in 10.0 mi Calm Calm - N/A   Clear
3:15 PM 71.6 °F 44.6 °F 38% 29.92 in 10.0 mi Calm Calm - N/A   Clear
3:35 PM 73.4 °F 46.4 °F 38% 29.91 in 10.0 mi Calm Calm - N/A   Clear
3:55 PM 73.4 °F 50.0 °F 44% 29.90 in 10.0 mi WSW 9.2 mph - N/A   Clear
4:15 PM 71.6 °F 50.0 °F 46% 29.89 in 10.0 mi WSW 15.0 mph - N/A   Clear
4:35 PM 69.8 °F 48.2 °F 46% 29.88 in 10.0 mi SW 16.1 mph 19.6 mph N/A   Clear
4:55 PM 68.0 °F 48.2 °F 49% 29.87 in 10.0 mi SW 12.7 mph 21.9 mph N/A   Clear
5:15 PM 64.4 °F 48.2 °F 56% 29.87 in 10.0 mi SW 16.1 mph 24.2 mph N/A   Clear
5:35 PM 64.4 °F 48.2 °F 56% 29.86 in 10.0 mi SW 18.4 mph 25.3 mph N/A   Clear
5:55 PM 62.6 °F 48.2 °F 59% 29.86 in 9.0 mi SW 10.4 mph 23.0 mph N/A   Clear
6:15 PM 62.6 °F 46.4 °F 55% 29.85 in 9.0 mi SW 11.5 mph 17.3 mph N/A   Clear
6:35 PM 62.6 °F 46.4 °F 55% 29.85 in 10.0 mi SW 8.1 mph - N/A   Clear
6:55 PM 59.0 °F 46.4 °F 63% 29.86 in 10.0 mi SW 5.8 mph - N/A   Clear
7:15 PM 59.0 °F 46.4 °F 63% 29.86 in 10.0 mi NNE 4.6 mph - N/A   Clear
7:35 PM 59.0 °F 46.4 °F 63% 29.86 in 10.0 mi Calm Calm - N/A   Clear
7:55 PM 55.4 °F 46.4 °F 72% 29.85 in 10.0 mi East 5.8 mph - N/A   Clear
8:15 PM 57.2 °F 46.4 °F 67% 29.85 in 10.0 mi Calm Calm - N/A   Clear
8:35 PM 53.6 °F 48.2 °F 82% 29.86 in 10.0 mi ENE 3.5 mph - N/A   Clear
8:55 PM 51.8 °F 48.2 °F 88% 29.87 in 10.0 mi ESE 3.5 mph - N/A   Clear
9:15 PM 53.6 °F 46.4 °F 77% 29.88 in 10.0 mi ESE 3.5 mph - N/A   Clear
9:35 PM 53.6 °F 46.4 °F 77% 29.88 in 10.0 mi South 3.5 mph - N/A   Clear
9:55 PM 53.6 °F 46.4 °F 77% 29.89 in 10.0 mi SSE 3.5 mph - N/A   Clear
10:15 PM 50.0 °F 46.4 °F 87% 29.88 in 10.0 mi Calm Calm - N/A   Clear
10:35 PM 50.0 °F 46.4 °F 87% 29.88 in 10.0 mi Calm Calm - N/A   Clear
10:55 PM 46.4 °F 46.4 °F 100% 29.89 in 10.0 mi Calm Calm - N/A   Clear
11:15 PM 48.2 °F 46.4 °F 93% 29.88 in 10.0 mi Calm Calm - N/A   Clear
11:35 PM 48.2 °F 46.4 °F 93% 29.88 in 9.0 mi Calm Calm - N/A   Clear
11:55 PM 46.4 °F 46.4 °F 100% 29.89 in 7.0 mi Calm Calm - N/A   Clear